CAPE
33 39 44 21 21 14 14 7 3 3 8 19 6 6 nan nan nan nan nan nan nan nan 0 0 0 0 nan nan nan nan nan nan nan nan nan nan nan nan nan nan nan nan nan nan nan nan nan nan nan nan nan nan nan nan nan 12 12 36 55 71 71 83 100 117 117 120 135 154 121 121 60 23 3 3 1 nan 0 0 9 18 18 41 73 139 139 243
29 38 42 25 25 18 19 22 14 14 7 12 12 12 nan nan nan nan 1 1 1 0 nan 0 0 0 1 0 nan nan nan nan nan nan nan nan nan nan nan nan nan nan nan nan nan nan nan nan nan nan nan nan nan nan nan nan nan 8 20 31 31 48 61 82 82 95 108 127 101 101 50 6 0 0 nan nan 2 2 8 21 21 33 69 147 147 221
27 34 44 40 40 24 22 28 25 25 19 13 18 18 7 nan nan nan 0 nan nan nan nan nan nan 1 2 2 0 0 0 0 0 0 0 0 nan nan nan nan nan nan nan nan nan nan nan nan nan nan nan nan nan nan nan nan nan nan 0 3 3 10 21 42 42 60 62 69 53 53 16 nan nan nan nan 1 11 11 15 16 16 37 68 131 131 202
18 26 35 51 51 48 32 22 31 31 28 21 20 20 8 1 nan nan nan nan nan nan nan nan nan nan 2 2 0 0 1 0 1 1 0 0 0 0 0 0 0 0 0 0 0 nan nan nan nan nan nan nan nan nan nan nan nan nan nan nan nan nan 2 10 10 16 21 12 2 2 nan nan nan nan nan 5 8 8 9 13 13 30 67 117 117 188
18 20 21 36 36 48 53 39 39 39 26 14 7 7 1 0 0 0 0 nan nan nan nan nan nan nan 0 2 1 1 1 1 1 1 1 1 1 1 1 1 1 1 1 0 0 0 0 nan nan nan nan nan nan nan nan nan nan nan nan nan nan nan nan nan nan nan nan nan nan nan nan nan nan nan nan 2 10 10 14 14 14 26 59 119 119 188
14 14 12 23 23 29 41 48 54 54 37 6 0 0 nan nan 2 2 2 1 1 nan nan nan nan nan nan 2 0 0 2 1 1 1 1 1 1 1 1 1 1 1 1 1 1 1 0 0 0 0 nan nan nan nan nan nan nan nan nan nan nan nan nan nan nan nan nan nan nan nan nan nan nan nan nan 0 3 3 15 23 23 36 57 104 104 192
5 8 14 21 21 41 41 45 59 59 34 10 2 2 nan 0 1 1 2 1 1 1 0 nan nan nan nan nan 0 0 1 1 1 1 1 1 1 1 1 2 2 2 2 2 2 1 1 0 0 0 0 0 nan nan nan nan nan nan nan nan nan nan nan nan nan nan nan nan nan nan nan nan nan nan nan nan 0 0 16 30 30 50 71 102 102 185
5 9 15 26 26 43 43 56 59 59 36 25 24 24 18 9 1 1 2 2 2 0 nan 0 0 0 nan nan nan nan nan nan nan nan nan nan nan nan 0 1 1 1 2 2 2 2 2 1 1 0 0 0 1 1 nan nan nan nan nan nan nan nan nan nan nan nan nan nan nan nan nan nan nan nan nan nan nan nan nan 30 30 69 112 148 148 173
8 7 14 43 43 48 35 35 57 57 48 29 22 22 17 17 20 20 17 4 4 1 0 nan nan nan nan nan nan nan nan nan nan nan nan nan nan nan nan nan nan 0 0 1 1 2 2 2 2 2 0 0 0 0 nan nan nan nan nan nan nan nan nan nan nan nan nan nan nan nan nan nan nan nan nan nan nan nan nan 7 7 53 112 155 155 191
12 8 5 22 22 47 44 29 45 45 76 44 37 37 29 28 26 26 27 30 30 15 2 1 1 0 0 nan nan nan nan nan nan nan nan nan nan nan nan nan nan nan nan nan nan 0 2 2 2 2 2 0 nan nan nan nan nan nan nan nan nan nan nan nan nan nan nan nan nan nan nan nan nan nan nan nan nan nan nan 0 0 20 81 142 142 177
nan 4 1 4 4 25 53 59 66 66 31 22 16 16 21 30 30 30 28 34 34 31 8 2 2 1 1 0 0 0 nan nan nan nan nan nan nan nan nan nan nan nan nan nan nan nan 1 2 2 3 2 1 nan nan nan nan nan nan nan nan nan nan nan nan nan nan nan nan nan nan nan nan nan nan nan nan nan nan nan nan nan 1 25 98 98 164
nan nan 0 1 1 6 38 68 24 24 12 20 19 19 17 19 25 25 23 26 26 28 27 5 5 2 0 0 1 1 nan nan nan nan nan 0 nan nan nan nan nan nan nan nan nan nan 1 2 2 2 3 2 0 0 nan nan nan nan nan nan nan nan nan nan nan nan nan nan nan nan nan nan nan nan nan nan nan nan nan nan nan nan 0 39 39 132
nan nan 0 4 4 6 8 45 40 40 24 46 35 35 20 18 24 24 20 19 19 24 34 24 24 1 1 0 1 1 nan nan nan nan nan 0 0 0 nan nan nan nan nan nan nan nan nan 1 1 3 2 1 nan nan nan nan nan nan nan nan nan nan nan nan nan nan nan nan nan nan nan nan nan nan nan nan nan nan nan nan nan nan nan 9 9 77
nan 0 0 0 0 4 5 20 39 39 47 45 31 31 24 17 23 23 24 24 24 27 29 26 26 11 2 1 1 1 1 nan nan nan nan nan nan nan nan nan nan nan nan nan nan nan nan 0 0 1 1 2 1 1 0 nan nan nan nan nan nan nan nan nan nan nan nan nan nan nan nan nan nan nan nan nan nan nan nan nan nan nan nan nan nan 25
nan 0 0 0 0 1 5 10 16 16 29 31 33 33 29 29 30 30 32 29 29 29 28 24 24 13 10 3 1 1 2 2 0 0 0 nan nan nan nan nan nan nan nan nan nan nan nan 0 0 0 0 1 2 2 1 1 1 0 nan nan nan nan nan nan nan nan nan nan nan nan nan nan nan nan nan nan nan nan nan nan nan nan nan nan nan nan
nan nan 0 1 1 1 5 11 12 12 18 30 36 36 39 35 43 43 43 36 36 33 31 26 26 17 16 11 nan nan 0 2 2 2 0 0 nan nan nan nan nan nan nan nan nan nan nan 0 0 0 0 nan nan nan nan 0 0 0 0 nan nan nan nan nan nan nan nan nan nan nan nan nan nan nan nan nan nan nan nan nan nan nan nan nan nan nan
1 0 nan 0 0 2 5 9 13 13 19 28 42 42 53 54 60 60 50 45 45 37 28 25 25 22 18 12 nan nan 0 1 3 3 1 nan nan nan nan nan nan nan nan nan nan nan nan nan nan nan nan nan nan nan nan nan nan 0 0 nan nan nan nan nan nan nan nan nan nan nan nan nan nan nan nan nan nan nan nan nan nan nan nan nan nan nan
5 2 1 0 0 0 2 3 8 8 17 25 41 41 56 69 78 78 67 63 63 49 32 28 28 21 25 17 nan nan nan nan 1 1 1 0 0 0 1 nan nan nan nan nan nan nan nan nan nan nan nan nan nan nan nan nan nan 0 0 nan nan nan nan nan nan nan nan nan nan nan nan nan nan nan nan nan nan nan nan nan nan nan nan nan nan nan
7 6 4 1 1 1 1 2 6 6 11 19 39 39 51 61 68 68 74 70 70 57 43 28 28 25 29 28 nan nan nan nan 0 0 1 0 0 0 1 1 1 0 1 0 0 0 1 0 0 nan nan nan nan nan nan nan nan 0 0 nan nan nan nan nan nan nan nan nan nan nan nan nan nan nan nan nan nan nan nan nan nan nan nan nan nan nan
13 13 9 4 4 4 4 3 4 4 8 17 40 40 51 64 63 63 73 71 71 65 48 41 41 30 29 36 nan nan nan nan 0 0 1 0 2 2 0 1 1 1 1 1 1 1 1 1 1 1 nan nan nan nan nan nan nan 0 0 nan nan nan nan nan nan nan nan nan nan nan nan nan nan nan nan nan nan nan nan nan nan nan nan nan nan nan
17 15 11 5 5 8 5 4 6 6 17 49 82 82 105 95 100 100 112 90 90 74 59 37 37 20 18 22 19 19 nan nan nan nan 2 2 4 4 nan 1 1 1 1 0 0 1 3 3 3 5 1 1 1 1 1 0 0 nan 0 nan nan nan nan nan nan nan nan nan nan nan nan nan nan nan nan nan nan nan nan nan nan nan nan nan nan nan
18 10 7 17 17 13 8 12 11 11 25 56 44 44 46 65 101 101 98 77 77 68 63 46 46 32 28 24 36 36 nan nan nan nan 1 6 7 7 nan 1 1 1 0 nan nan 1 4 6 6 6 3 2 3 3 3 1 1 0 nan nan nan nan nan nan nan nan nan nan nan nan nan nan nan nan nan nan nan nan nan nan nan nan nan nan nan nan
17 12 9 14 14 12 13 20 18 18 20 29 23 23 32 59 70 70 72 62 62 46 61 58 58 68 67 62 0 0 nan nan nan nan nan 6 14 14 nan 2 2 1 0 nan nan 0 5 5 5 5 5 5 4 4 4 2 2 0 nan nan nan nan nan nan nan nan nan nan nan nan nan nan nan nan nan nan nan nan nan nan nan nan nan nan nan nan
18 16 15 14 14 17 20 19 19 19 17 17 18 18 31 42 47 47 43 34 34 40 52 69 69 45 62 40 nan nan nan nan nan nan nan 7 15 15 nan 1 1 2 0 nan nan 2 5 4 4 5 5 7 5 5 3 3 3 1 nan nan nan nan nan nan nan nan nan nan nan nan nan nan nan nan nan nan nan nan nan nan nan nan nan nan nan nan
17 17 19 19 19 31 27 21 19 19 17 17 17 17 25 36 34 34 36 38 38 31 28 34 34 45 19 nan 1 1 1 0 nan nan nan 6 14 14 nan 1 1 0 nan 0 0 3 4 4 4 5 6 6 3 3 2 3 3 1 nan nan nan nan nan nan nan nan nan nan nan nan nan nan nan nan nan nan nan nan nan nan nan nan nan nan nan nan
26 23 20 23 23 36 35 34 31 31 29 22 28 28 29 37 37 37 39 36 36 26 21 18 18 31 39 8 0 0 4 4 nan nan nan 2 9 9 0 1 1 nan 0 1 1 0 3 5 5 5 6 6 3 3 1 2 2 1 nan nan nan nan nan nan nan nan nan nan nan nan nan nan nan nan nan nan nan nan nan nan nan nan nan nan nan nan
45 41 39 38 38 36 36 44 44 44 45 43 35 35 34 50 47 47 48 35 35 33 28 25 25 36 56 65 52 52 3 6 2 2 0 1 2 2 2 1 1 0 3 1 1 0 3 4 4 5 5 6 2 2 0 1 1 nan nan nan nan nan nan nan nan nan nan nan nan nan nan nan nan nan nan nan nan nan nan 0 0 nan nan nan nan nan
59 58 59 55 55 48 39 36 42 42 48 59 58 58 45 57 68 68 48 30 30 51 44 34 34 39 53 57 66 66 42 7 4 4 2 1 0 0 4 1 1 1 3 1 1 0 2 3 3 5 5 5 3 3 0 nan nan nan nan nan nan nan nan nan nan nan nan nan nan nan nan nan nan nan nan nan 0 0 0 0 0 0 nan nan nan nan
58 63 57 56 56 53 48 46 51 51 61 77 82 82 78 70 84 84 81 79 79 83 64 60 60 55 55 75 75 75 92 36 3 3 1 2 0 0 12 1 1 1 3 0 0 2 2 3 3 4 6 5 3 3 nan nan nan nan nan nan nan nan nan nan nan nan nan nan nan nan nan 0 0 0 0 0 0 0 1 0 0 0 nan nan nan nan
47 47 53 65 65 66 64 64 87 87 99 105 104 104 83 67 81 81 105 134 134 104 84 95 95 84 64 71 87 87 103 91 4 4 0 1 2 2 7 0 0 0 4 2 2 3 2 3 3 1 4 5 4 4 1 nan nan 0 nan nan nan nan nan nan nan nan nan nan nan nan 0 0 0 0 0 1 1 1 1 1 1 0 nan nan nan nan
62 99 98 95 95 98 94 86 97 97 113 106 75 75 82 65 125 125 93 90 90 86 79 77 77 112 102 109 92 92 89 103 33 33 nan 1 3 3 7 1 1 0 4 1 1 2 2 1 1 0 1 3 4 4 2 0 0 0 0 nan nan nan nan nan nan nan nan nan nan nan nan 0 1 1 1 1 1 1 1 1 1 nan nan nan nan nan
25 31 36 51 51 67 82 76 71 71 64 56 40 40 31 37 48 48 55 56 56 58 52 46 46 56 78 81 95 95 121 176 90 90 8 nan 2 2 13 3 3 1 0 1 1 3 9 22 22 nan nan 2 2 2 3 1 1 nan nan nan nan nan nan nan nan nan nan nan nan nan 0 0 0 0 1 1 1 1 1 nan nan nan nan nan nan nan
22 19 19 22 22 28 27 34 43 43 51 44 34 34 30 33 31 31 36 41 41 45 41 34 34 36 46 74 83 83 112 190 97 97 17 7 3 3 6 7 7 1 0 1 1 3 12 13 13 nan nan 3 3 3 3 2 2 nan nan nan nan nan nan nan nan nan nan nan 0 0 2 0 1 1 1 2 2 2 1 nan nan nan nan nan nan nan
17 17 19 19 19 18 20 20 23 23 27 27 32 32 28 28 25 25 28 35 35 42 42 37 37 33 33 37 66 66 106 189 94 94 50 28 14 14 16 21 21 6 1 1 1 2 7 3 3 nan nan 2 3 3 4 2 2 nan nan nan nan nan nan nan nan nan nan nan nan nan 0 1 5 5 1 3 2 2 1 nan nan nan nan nan nan nan
13 17 21 28 28 34 33 31 32 32 30 29 28 28 30 28 24 24 28 33 33 38 35 45 45 41 34 29 37 37 47 143 114 114 44 40 13 13 9 22 22 9 1 2 2 0 2 1 1 0 nan 0 2 2 3 nan nan nan nan nan nan nan nan nan nan nan nan nan nan nan nan nan 0 0 2 2 3 3 2 0 0 nan nan nan nan nan
47 46 36 70 70 100 101 108 78 78 53 48 38 38 33 30 26 26 26 33 33 40 48 62 62 53 37 46 46 46 27 74 150 150 80 66 48 48 28 42 42 23 9 6 6 4 3 0 0 0 3 1 2 2 1 nan nan nan nan nan nan nan nan nan nan nan nan nan nan nan nan nan 1 1 1 3 3 3 2 1 1 nan nan nan nan nan
137 126 124 116 116 123 139 135 101 101 69 51 37 37 35 26 25 25 33 52 52 58 57 75 75 77 90 74 55 55 53 62 144 144 118 101 77 77 75 82 82 53 50 32 32 15 6 1 1 0 1 8 5 5 1 0 0 nan nan nan nan nan nan nan nan nan nan nan nan nan nan nan nan nan 2 5 4 4 5 3 3 0 nan nan nan nan
166 166 163 130 130 102 80 70 63 63 61 37 30 30 30 37 37 37 27 41 41 48 45 59 59 83 172 122 121 121 160 156 143 143 119 99 70 70 117 123 123 128 104 70 70 23 9 4 4 1 1 3 9 9 0 0 0 nan nan nan nan nan nan nan nan nan nan nan nan nan nan nan nan nan 0 2 2 2 3 2 2 3 nan nan nan nan
65 104 127 114 114 83 46 36 41 41 42 32 23 23 31 42 36 36 25 25 25 24 30 35 35 67 3 6 139 139 167 13 nan nan nan 1 28 28 106 113 113 136 106 73 73 30 13 12 12 6 3 3 5 5 1 0 0 nan nan nan nan nan nan nan nan nan nan nan nan nan nan nan nan nan 0 nan nan nan 1 2 2 2 0 nan nan nan
7 3 11 44 44 47 40 49 41 41 44 40 30 30 25 27 24 24 21 21 21 20 27 39 39 53 42 69 114 114 94 3 11 11 nan nan nan nan 39 81 81 103 119 94 94 47 28 21 21 19 11 3 3 3 2 1 1 0 nan nan nan nan nan nan nan nan nan nan nan nan nan nan nan nan nan 0 1 1 1 1 1 1 0 nan nan nan
2 0 5 10 10 31 47 58 64 64 47 38 18 18 16 18 16 16 12 15 15 20 24 41 41 60 69 85 96 96 124 24 52 52 nan nan nan nan 7 41 41 78 106 77 77 36 27 26 26 23 15 4 3 3 3 2 2 1 nan nan nan nan nan 0 0 nan nan nan nan nan nan nan nan nan nan 1 2 2 1 1 1 0 0 nan nan nan
5 1 6 12 12 24 33 45 55 55 40 20 15 15 13 9 12 12 9 15 15 15 20 39 39 65 68 54 62 62 121 154 10 10 nan nan nan nan 0 14 14 34 49 50 50 34 30 24 24 16 9 2 2 2 0 1 1 1 nan nan nan nan nan 0 0 nan nan nan nan nan nan nan nan nan 0 3 4 4 2 1 1 2 0 nan nan nan
4 3 8 13 13 25 42 47 38 38 29 26 24 24 22 19 20 20 21 27 27 28 30 53 53 103 109 84 67 67 101 197 206 206 38 nan nan nan nan 11 11 33 37 26 26 27 28 22 22 11 6 0 1 1 0 1 1 1 0 nan nan nan nan nan nan nan nan nan nan nan nan nan nan nan 1 3 3 3 2 2 2 2 1 nan nan nan
5 5 9 13 13 27 37 40 30 30 21 25 33 33 33 36 46 46 46 90 90 83 89 127 127 139 124 112 153 153 97 135 144 144 82 16 nan nan 1 9 9 23 29 25 25 22 20 16 16 6 6 0 1 1 nan 0 0 0 nan nan nan nan nan nan nan nan nan nan nan nan nan nan nan nan 0 nan 0 0 1 1 1 0 0 nan nan nan
10 12 20 85 85 55 47 31 38 38 57 64 82 82 97 116 100 100 86 149 149 158 171 127 127 105 155 167 161 161 74 59 73 73 16 0 nan nan nan 6 6 19 38 44 44 27 16 15 15 7 1 nan 0 0 nan nan nan 0 nan nan nan nan nan nan nan nan nan nan nan nan nan nan nan nan nan nan nan nan 0 0 0 nan 0 nan nan nan
42 27 31 58 58 68 52 37 49 49 100 123 117 117 111 101 116 116 88 80 80 92 79 84 84 87 100 103 79 79 34 30 41 41 19 1 1 1 0 3 3 19 50 60 60 29 18 22 22 5 nan nan nan nan nan nan nan nan nan nan nan nan nan nan nan nan nan nan nan nan nan nan nan nan nan nan nan nan nan 0 0 0 0 0 0 nan
9 18 20 15 15 16 13 11 20 20 26 25 38 38 49 37 30 30 40 53 53 49 47 52 52 88 110 91 49 49 26 16 24 24 57 5 3 3 2 1 1 4 31 47 47 30 21 16 16 7 3 nan nan nan nan nan nan nan nan nan nan nan nan nan nan nan nan nan nan nan 0 nan nan nan nan nan nan nan nan nan nan 0 0 0 0 nan
31 29 20 17 17 11 7 5 5 5 7 10 8 8 11 18 22 22 26 36 36 49 55 68 68 125 143 78 56 56 35 29 19 19 63 36 4 4 1 1 1 2 11 16 16 30 27 5 5 1 0 nan nan nan 0 nan nan nan nan 0 0 nan nan nan nan nan nan nan nan nan nan nan nan nan nan nan nan nan nan nan nan nan nan nan nan nan
33 28 24 12 12 7 5 5 5 5 5 7 7 7 9 11 29 29 30 48 48 70 107 143 143 160 131 94 74 74 50 44 48 48 79 76 10 10 2 1 1 2 3 nan nan nan nan nan nan nan 0 nan nan nan 2 1 1 nan nan 0 0 nan nan nan nan nan nan nan nan nan nan nan nan nan nan nan nan nan nan nan nan nan nan nan nan nan
28 19 15 9 9 7 5 4 5 5 6 7 8 8 12 17 14 14 25 41 41 70 89 108 108 113 82 74 100 100 93 119 97 97 100 105 24 24 0 2 2 3 3 0 0 0 0 0 0 0 0 nan nan nan 1 1 1 nan nan 0 0 0 nan nan nan nan nan 0 nan nan nan 0 0 0 nan nan nan nan nan nan nan nan nan nan nan nan
16 12 8 6 6 7 6 5 6 6 6 8 12 12 20 26 24 24 28 41 41 58 73 98 98 102 89 83 71 71 79 188 132 132 120 129 39 39 nan 1 1 2 2 1 1 1 1 0 0 nan nan 0 nan nan 1 0 0 nan 0 0 0 0 nan nan nan 0 0 0 0 0 0 1 0 0 nan nan nan nan nan nan nan nan nan nan nan 0
CIN
-2 -0 -0 -11 -11 -7 -1 -1 -1 -1 -0 -0 -0 -0 nan nan nan nan nan nan nan nan -0 -0 -0 -0 nan nan nan nan nan nan nan nan nan nan nan nan nan nan nan nan nan nan nan nan nan nan nan nan nan nan nan nan nan -0 -0 -0 -0 -0 -0 -0 -0 -0 -0 -0 -0 -1 -3 -3 -0 -0 -3 -3 -5 nan -33 -33 -18 -11 -11 -8 -0 -0 -0 -0
-7 -4 -2 -10 -10 -7 -0 -0 -0 -0 -0 -0 -0 -0 nan nan nan nan -0 -0 -0 -0 nan -0 -0 -0 -0 -0 nan nan nan nan nan nan nan nan nan nan nan nan nan nan nan nan nan nan nan nan nan nan nan nan nan nan nan nan nan -1 -1 -2 -2 -0 -0 -0 -0 -0 -0 -0 -3 -3 -2 -2 -5 -5 nan nan -6 -6 -14 -6 -6 -8 -0 -0 -0 -0
-4 -5 -1 -0 -0 -2 -0 -0 -0 -0 -0 -0 -0 -0 -1 nan nan nan -0 nan nan nan nan nan nan -0 -0 -0 -0 -0 -0 -0 -0 -0 -0 -0 nan nan nan nan nan nan nan nan nan nan nan nan nan nan nan nan nan nan nan nan nan nan -4 -21 -21 -5 -4 -3 -3 -2 -3 -6 -7 -7 -7 nan nan nan nan -4 -2 -2 -1 -6 -6 -6 -4 -0 -0 -0
-0 -0 -0 -0 -0 -0 -0 -0 -0 -0 -0 -0 -0 -0 -0 -5 nan nan nan nan nan nan nan nan nan nan -0 -0 -0 -0 -0 -0 -0 -0 -0 -0 -0 -0 -0 -0 -0 -0 -0 -0 -0 nan nan nan nan nan nan nan nan nan nan nan nan nan nan nan nan nan -28 -9 -9 -10 -13 -20 -23 -23 nan nan nan nan nan -1 -0 -0 -0 -4 -4 -5 -0 -0 -0 -0
-0 -0 -0 -0 -0 -0 -0 -0 -0 -0 -2 -0 -0 -0 -0 -8 -4 -4 -0 nan nan nan nan nan nan nan -0 -0 -0 -0 -0 -0 -0 -0 -0 -0 -0 -0 -0 -0 -0 -0 -0 -0 -0 -0 -0 nan nan nan nan nan nan nan nan nan nan nan nan nan nan nan nan nan nan nan nan nan nan nan nan nan nan nan nan -3 -0 -0 -0 -0 -0 -2 -1 -0 -0 -0
-0 -0 -0 -0 -0 -0 -0 -0 -0 -0 -0 -0 -0 -0 nan nan -0 -0 -0 -0 -0 nan nan nan nan nan nan -0 -0 -0 -0 -0 -0 -0 -0 -0 -0 -0 -0 -0 -0 -0 -0 -0 -0 -0 -0 -0 -0 -0 nan nan nan nan nan nan nan nan nan nan nan nan nan nan nan nan nan nan nan nan nan nan nan nan nan -6 -0 -0 -0 -0 -0 -0 -0 -0 -0 -0
-0 -0 -0 -0 -0 -0 -1 -0 -0 -0 -0 -1 -0 -0 nan -0 -0 -0 -0 -0 -0 -0 -0 nan nan nan nan nan -0 -0 -0 -0 -0 -0 -0 -0 -0 -0 -0 -0 -0 -0 -0 -0 -0 -0 -0 -0 -0 -0 -0 -0 nan nan nan nan nan nan nan nan nan nan nan nan nan nan nan nan nan nan nan nan nan nan nan nan -1 -1 -0 -0 -0 -0 -0 -0 -0 -0
-0 -0 -0 -3 -3 -3 -1 -6 -0 -0 -0 -0 -0 -0 -0 -0 -0 -0 -0 -0 -0 -0 nan -0 -0 -0 nan nan nan nan nan nan nan nan nan nan nan nan -0 -0 -0 -0 -0 -0 -0 -0 -0 -0 -0 -0 -0 -0 -0 -0 nan nan nan nan nan nan nan nan nan nan nan nan nan nan nan nan nan nan nan nan nan nan nan nan nan -1 -1 -0 -0 -0 -0 -1
-0 -0 -0 -4 -4 -0 -0 -0 -0 -0 -0 -0 -0 -0 -0 -0 -2 -2 -3 -0 -0 -0 -0 nan nan nan nan nan nan nan nan nan nan nan nan nan nan nan nan nan nan -0 -0 -0 -0 -0 -0 -0 -0 -0 -0 -0 -0 -0 nan nan nan nan nan nan nan nan nan nan nan nan nan nan nan nan nan nan nan nan nan nan nan nan nan -5 -5 -2 -0 -0 -0 -0
-9 -0 -0 -0 -0 -6 -0 -0 -0 -0 -0 -0 -0 -0 -0 -0 -1 -1 -0 -1 -1 -0 -0 -0 -0 -0 -0 nan nan nan nan nan nan nan nan nan nan nan nan nan nan nan nan nan nan -0 -0 -0 -0 -0 -0 -1 nan nan nan nan nan nan nan nan nan nan nan nan nan nan nan nan nan nan nan nan nan nan nan nan nan nan nan -62 -62 -5 -2 -1 -1 -1
nan -0 -0 -0 -0 -0 -10 -2 -12 -12 -0 -0 -0 -0 -0 -2 -1 -1 -0 -0 -0 -3 -0 -0 -0 -0 -0 -0 -0 -0 nan nan nan nan nan nan nan nan nan nan nan nan nan nan nan nan -0 -0 -0 -0 -0 -1 nan nan nan nan nan nan nan nan nan nan nan nan nan nan nan nan nan nan nan nan nan nan nan nan nan nan nan nan nan -58 -7 -4 -4 -3
nan nan -0 -0 -0 -1 -8 -13 -25 -25 -0 -0 -2 -2 -2 -2 -3 -3 -1 -0 -0 -0 -2 -0 -0 -0 -0 -0 -0 -0 nan nan nan nan nan -0 nan nan nan nan nan nan nan nan nan nan -0 -0 -0 -0 -0 -1 -2 -2 nan nan nan nan nan nan nan nan nan nan nan nan nan nan nan nan nan nan nan nan nan nan nan nan nan nan nan nan -46 -11 -11 -6
nan nan -1 -1 -1 -1 -0 -9 -7 -7 -0 -1 -0 -0 -0 -0 -0 -0 -0 -0 -0 -0 -0 -2 -2 -0 -0 -0 -0 -0 nan nan nan nan nan -0 -0 -0 nan nan nan nan nan nan nan nan nan -0 -0 -0 -0 -0 nan nan nan nan nan nan nan nan nan nan nan nan nan nan nan nan nan nan nan nan nan nan nan nan nan nan nan nan nan nan nan -23 -23 -11
nan -0 -0 -1 -1 -0 -0 -0 -2 -2 -0 -0 -0 -0 -0 -0 -0 -0 -1 -0 -0 -0 -2 -5 -5 -0 -0 -0 -0 -0 -0 nan nan nan nan nan nan nan nan nan nan nan nan nan nan nan nan -0 -0 -0 -0 -0 -0 -0 -1 nan nan nan nan nan nan nan nan nan nan nan nan nan nan nan nan nan nan nan nan nan nan nan nan nan nan nan nan nan nan -12
nan -0 -0 -0 -0 -0 -0 -1 -1 -1 -0 -0 -0 -0 -0 -0 -0 -0 -0 -0 -0 -0 -4 -6 -6 -3 -1 -0 -0 -0 -0 -0 -0 -0 -0 nan nan nan nan nan nan nan nan nan nan nan nan -0 -0 -0 -0 -0 -0 -0 -0 -0 -0 -1 nan nan nan nan nan nan nan nan nan nan nan nan nan nan nan nan nan nan nan nan nan nan nan nan nan nan nan nan
nan nan -0 -0 -0 -1 -0 -0 -0 -0 -0 -0 -1 -1 -0 -0 -0 -0 -0 -0 -0 -0 -4 -7 -7 -3 -0 -1 nan nan -0 -0 -0 -0 -0 -0 nan nan nan nan nan nan nan nan nan nan nan -0 -0 -0 -0 nan nan nan nan -0 -0 -1 -1 nan nan nan nan nan nan nan nan nan nan nan nan nan nan nan nan nan nan nan nan nan nan nan nan nan nan nan
-0 -0 nan -0 -0 -0 -0 -0 -0 -0 -0 -0 -0 -0 -0 -0 -0 -0 -1 -3 -3 -8 -8 -5 -5 -2 -0 -0 nan nan -0 -0 -0 -0 -0 nan nan nan nan nan nan nan nan nan nan nan nan nan nan nan nan nan nan nan nan nan nan -2 -2 nan nan nan nan nan nan nan nan nan nan nan nan nan nan nan nan nan nan nan nan nan nan nan nan nan nan nan
-0 -0 -0 -0 -0 -0 -0 -0 -0 -0 -0 -0 -2 -2 -0 -0 -1 -1 -2 -5 -5 -7 -7 -4 -4 -3 -0 -0 nan nan nan nan -0 -0 -0 -0 -0 -0 -0 nan nan nan nan nan nan nan nan nan nan nan nan nan nan nan nan nan nan -1 -2 nan nan nan nan nan nan nan nan nan nan nan nan nan nan nan nan nan nan nan nan nan nan nan nan nan nan nan
-0 -0 -0 -0 -0 -0 -0 -0 -0 -0 -0 -0 -0 -0 -0 -0 -5 -5 -9 -7 -7 -6 -5 -4 -4 -4 -0 -0 nan nan nan nan -0 -0 -0 -0 -0 -0 -0 -0 -0 -0 -0 -0 -0 -0 -0 -0 -0 nan nan nan nan nan nan nan nan -1 -2 nan nan nan nan nan nan nan nan nan nan nan nan nan nan nan nan nan nan nan nan nan nan nan nan nan nan nan
-0 -0 -0 -0 -0 -0 -0 -0 -0 -0 -0 -0 -0 -0 -1 -1 -0 -0 -2 -7 -7 -4 -6 -3 -3 -4 -0 -0 nan nan nan nan -0 -0 -0 -0 -0 -0 -0 -0 -0 -0 -0 -0 -0 -0 -0 -0 -0 -3 nan nan nan nan nan nan nan -2 -2 nan nan nan nan nan nan nan nan nan nan nan nan nan nan nan nan nan nan nan nan nan nan nan nan nan nan nan
-0 -0 -0 -0 -0 -0 -0 -0 -0 -0 -0 -6 -2 -2 -0 -0 -1 -1 -0 -1 -1 -1 -6 -5 -5 -3 -0 -0 -10 -10 nan nan nan nan -0 -0 -0 -0 nan -0 -0 -0 -0 -0 -0 -0 -0 -0 -0 -0 -4 -9 -8 -8 -7 -6 -6 nan -3 nan nan nan nan nan nan nan nan nan nan nan nan nan nan nan nan nan nan nan nan nan nan nan nan nan nan nan
-0 -0 -0 -0 -0 -0 -0 -0 -0 -0 -2 -6 -2 -2 -1 -0 -0 -0 -1 -1 -1 -1 -3 -5 -5 -0 -0 -0 -12 -12 nan nan nan nan -0 -0 -0 -0 nan -0 -0 -0 -0 nan nan -0 -0 -0 -0 -0 -0 -5 -6 -6 -5 -5 -5 -5 nan nan nan nan nan nan nan nan nan nan nan nan nan nan nan nan nan nan nan nan nan nan nan nan nan nan nan nan
-0 -0 -0 -0 -0 -0 -0 -0 -0 -0 -0 -0 -5 -5 -5 -1 -0 -0 -0 -0 -0 -0 -0 -1 -1 -1 -0 -4 -43 -43 nan nan nan nan nan -0 -0 -0 nan -0 -0 -0 -0 nan nan -0 -0 -0 -0 -0 -0 -2 -4 -4 -4 -5 -5 -6 nan nan nan nan nan nan nan nan nan nan nan nan nan nan nan nan nan nan nan nan nan nan nan nan nan nan nan nan
-0 -0 -0 -0 -0 -0 -0 -0 -0 -0 -0 -0 -0 -0 -10 -6 -2 -2 -1 -1 -1 -0 -0 -0 -0 -0 -0 -0 nan nan nan nan nan nan nan -1 -0 -0 nan -0 -0 -0 -0 nan nan -0 -0 -0 -0 -0 -0 -0 -1 -1 -3 -5 -5 -7 nan nan nan nan nan nan nan nan nan nan nan nan nan nan nan nan nan nan nan nan nan nan nan nan nan nan nan nan
-0 -0 -0 -0 -0 -8 -0 -0 -0 -0 -0 -0 -2 -2 -12 -7 -2 -2 -3 -5 -5 -2 -1 -0 -0 -0 -1 nan -0 -0 -0 -0 nan nan nan -3 -0 -0 nan -0 -0 -0 nan -0 -0 -0 -0 -0 -0 -0 -0 -0 -0 -0 -3 -5 -5 -8 nan nan nan nan nan nan nan nan nan nan nan nan nan nan nan nan nan nan nan nan nan nan nan nan nan nan nan nan
-0 -0 -0 -0 -0 -0 -0 -0 -0 -0 -0 -0 -0 -0 -0 -0 -0 -0 -0 -2 -2 -5 -3 -1 -1 -0 -1 -2 -0 -0 -0 -0 nan nan nan -3 -1 -1 -0 -0 -0 nan -0 -0 -0 -0 -0 -0 -0 -0 -0 -0 -0 -0 -3 -6 -6 -9 nan nan nan nan nan nan nan nan nan nan nan nan nan nan nan nan nan nan nan nan nan nan nan nan nan nan nan nan
-0 -0 -0 -0 -0 -0 -0 -0 -0 -0 -0 -0 -0 -0 -0 -0 -0 -0 -0 -0 -0 -1 -4 -2 -2 -1 -2 -1 -1 -1 -1 -0 -0 -0 -1 -2 -3 -3 -0 -0 -0 -0 -0 -0 -0 -0 -0 -0 -0 -0 -0 -0 -0 -0 -0 -8 -8 nan nan nan nan nan nan nan nan nan nan nan nan nan nan nan nan nan nan nan nan nan nan -0 -0 nan nan nan nan nan
-0 -0 -0 -0 -0 -0 -0 -0 -0 -0 -0 -0 -0 -0 -0 -2 -1 -1 -0 -0 -0 -0 -3 -2 -2 -1 -2 -1 -3 -3 -5 -0 -0 -0 -0 -2 -3 -3 -1 -0 -0 -0 -0 -0 -0 -0 -0 -0 -0 -0 -0 -0 -0 -0 -0 nan nan nan nan nan nan nan nan nan nan nan nan nan nan nan nan nan nan nan nan nan -0 -0 -0 -0 -0 -0 nan nan nan nan
-0 -0 -0 -0 -0 -0 -0 -0 -0 -0 -0 -0 -0 -0 -0 -1 -0 -0 -0 -0 -0 -0 -0 -2 -2 -2 -2 -1 -5 -5 -5 -0 -0 -0 -1 -1 -2 -2 -2 -0 -0 -0 -0 -0 -0 -0 -0 -0 -0 -0 -0 -0 -0 -0 nan nan nan nan nan nan nan nan nan nan nan nan nan nan nan nan nan -0 -0 -0 -0 -0 -0 -0 -0 -0 -0 -0 nan nan nan nan
-0 -0 -0 -0 -0 -0 -0 -0 -0 -0 -0 -0 -0 -0 -0 -0 -0 -0 -1 -1 -1 -0 -0 -1 -1 -1 -2 -3 -4 -4 -4 -2 -0 -0 -1 -1 -2 -2 -0 -0 -0 -0 -0 -0 -0 -0 -0 -0 -0 -0 -0 -0 -0 -0 -0 nan nan -0 nan nan nan nan nan nan nan nan nan nan nan nan -1 -0 -0 -0 -0 -0 -0 -0 -0 -0 -0 -0 nan nan nan nan
-1 -0 -0 -0 -0 -2 -3 -1 -0 -0 -0 -0 -0 -0 -0 -0 -0 -0 -0 -1 -1 -0 -0 -0 -0 -0 -0 -0 -1 -1 -2 -6 -0 -0 nan -0 -1 -1 -0 -0 -0 -0 -0 -0 -0 -0 -0 -0 -0 -0 -0 -0 -0 -0 -0 -0 -0 -0 -0 nan nan nan nan nan nan nan nan nan nan nan nan -0 -0 -0 -0 -0 -0 -0 -0 -0 -0 nan nan nan nan nan
-0 -0 -0 -0 -0 -0 -0 -0 -0 -0 -0 -0 -0 -0 -0 -0 -0 -0 -0 -0 -0 -0 -2 -1 -1 -0 -0 -0 -0 -0 -1 -3 -0 -0 -23 nan -3 -3 -1 -0 -0 -2 -3 -3 -3 -1 -0 -0 -0 nan nan -0 -0 -0 -0 -0 -0 nan nan nan nan nan nan nan nan nan nan nan nan nan -1 -1 -0 -0 -0 -0 -0 -0 -0 nan nan nan nan nan nan nan
-0 -0 -0 -0 -0 -0 -0 -0 -0 -0 -0 -0 -0 -0 -0 -0 -0 -0 -0 -0 -0 -0 -0 -1 -1 -2 -2 -0 -0 -0 -1 -0 -0 -0 -0 -19 -4 -4 -2 -1 -1 -2 -1 -1 -1 -2 -1 -0 -0 nan nan -0 -0 -0 -0 -0 -0 nan nan nan nan nan nan nan nan nan nan nan -0 -0 -0 -0 -0 -0 -0 -0 -0 -0 -0 nan nan nan nan nan nan nan
-0 -0 -0 -0 -0 -0 -0 -0 -0 -0 -0 -0 -0 -0 -0 -0 -0 -0 -0 -0 -0 -0 -0 -0 -0 -0 -0 -3 -1 -1 -1 -1 -0 -0 -0 -0 -4 -4 -2 -1 -1 -1 -1 -1 -1 -1 -0 -0 -0 nan nan -0 -0 -0 -0 -0 -0 nan nan nan nan nan nan nan nan nan nan nan nan nan -1 -0 -0 -0 -0 -0 -0 -0 -0 nan nan nan nan nan nan nan
-0 -0 -0 -0 -0 -0 -0 -0 -0 -0 -0 -0 -0 -0 -0 -0 -0 -0 -0 -0 -0 -0 -1 -0 -0 -0 -0 -1 -0 -0 -0 -4 -1 -1 -0 -0 -1 -1 -2 -1 -1 -2 -1 -1 -1 -1 -0 -0 -0 -0 nan -0 -0 -0 -0 nan nan nan nan nan nan nan nan nan nan nan nan nan nan nan nan nan -1 -1 -0 -0 -0 -0 -0 -0 -0 nan nan nan nan nan
-0 -0 -0 -0 -0 -0 -0 -0 -0 -0 -0 -0 -0 -0 -0 -0 -0 -0 -0 -0 -0 -0 -0 -0 -0 -0 -0 -4 -1 -1 -0 -5 -2 -2 -1 -0 -0 -0 -1 -1 -1 -1 -0 -0 -0 -0 -1 -0 -0 -0 -0 -0 -0 -0 -0 nan nan nan nan nan nan nan nan nan nan nan nan nan nan nan nan nan -1 -1 -1 -0 -0 -0 -0 -0 -0 nan nan nan nan nan
-0 -0 -0 -0 -0 -0 -0 -0 -0 -0 -0 -0 -0 -0 -0 -0 -0 -0 -0 -9 -9 -5 -0 -3 -3 -0 -3 -0 -2 -2 -0 -0 -1 -1 -2 -1 -0 -0 -1 -1 -1 -1 -0 -0 -0 -0 -0 -1 -1 -0 -0 -0 -0 -0 -0 -0 -0 nan nan nan nan nan nan nan nan nan nan nan nan nan nan nan nan nan -1 -0 -0 -0 -0 -0 -0 -0 nan nan nan nan
-0 -0 -0 -0 -0 -0 -0 -0 -0 -0 -0 -0 -0 -0 -0 -0 -0 -0 -0 -5 -5 -7 -0 -3 -3 -3 -2 -8 -9 -9 -1 -0 -9 -9 -7 -1 -1 -1 -1 -2 -2 -1 -0 -0 -0 -0 -0 -0 -0 -0 -0 -0 -0 -0 -0 -0 -0 nan nan nan nan nan nan nan nan nan nan nan nan nan nan nan nan nan -1 -1 -1 -1 -1 -1 -1 -0 nan nan nan nan
-0 -0 -0 -0 -0 -0 -0 -0 -0 -0 -0 -0 -0 -0 -0 -0 -0 -0 -0 -0 -0 -0 -1 -1 -1 -0 -50 -46 -6 -6 -3 -38 nan nan nan -47 -5 -5 -1 -2 -2 -0 -0 -0 -0 -0 -0 -0 -0 -0 -0 -0 -0 -0 -0 -0 -0 nan nan nan nan nan nan nan nan nan nan nan nan nan nan nan nan nan -1 nan nan nan -2 -2 -2 -0 -2 nan nan nan
-0 -0 -0 -0 -0 -0 -0 -0 -0 -0 -0 -0 -0 -0 -0 -0 -0 -0 -0 -0 -0 -0 -0 -0 -0 -0 -13 -10 -6 -6 -9 -34 -31 -31 nan nan nan nan -1 -3 -3 -4 -4 -3 -3 -4 -4 -3 -3 -1 -0 -0 -0 -0 -3 -0 -0 -0 nan nan nan nan nan nan nan nan nan nan nan nan nan nan nan nan nan -1 -2 -2 -2 -3 -3 -2 -2 nan nan nan
-0 -0 -0 -0 -0 -0 -0 -0 -0 -0 -0 -0 -0 -0 -0 -0 -0 -0 -0 -0 -0 -0 -0 -0 -0 -0 -1 -3 -5 -5 -6 -17 -9 -9 nan nan nan nan -1 -1 -1 -3 -4 -5 -5 -9 -9 -6 -6 -4 -1 -1 -3 -3 -0 -0 -0 -0 nan nan nan nan nan -0 -0 nan nan nan nan nan nan nan nan nan nan -2 -2 -2 -3 -3 -3 -2 -2 nan nan nan
-0 -0 -0 -0 -0 -0 -0 -0 -0 -0 -0 -0 -0 -0 -0 -0 -0 -0 -0 -0 -0 -0 -0 -0 -0 -0 -0 -0 -4 -4 -4 -4 -21 -21 nan nan nan nan -0 -1 -1 -1 -1 -1 -1 -3 -6 -6 -6 -6 -6 -6 -5 -5 -3 -0 -0 -1 nan nan nan nan nan -0 -0 nan nan nan nan nan nan nan nan nan -2 -1 -1 -1 -2 -2 -2 -0 -1 nan nan nan
-0 -0 -0 -0 -0 -0 -0 -0 -0 -0 -0 -0 -0 -0 -0 -0 -0 -0 -0 -0 -0 -0 -0 -0 -0 -1 -0 -0 -0 -0 -4 -5 -2 -2 -6 nan nan nan nan -1 -1 -1 -0 -0 -0 -1 -2 -4 -4 -6 -6 -18 -4 -4 -2 -0 -0 -1 -2 nan nan nan nan nan nan nan nan nan nan nan nan nan nan nan -1 -1 -1 -1 -2 -1 -1 -0 -0 nan nan nan
-0 -0 -0 -0 -0 -0 -0 -0 -0 -0 -0 -0 -0 -0 -0 -0 -0 -0 -0 -0 -0 -3 -4 -2 -2 -0 -0 -0 -0 -0 -0 -2 -4 -4 -0 -0 nan nan -33 -12 -12 -2 -1 -1 -1 -1 -1 -2 -2 -14 -6 -20 -19 -19 nan -0 -0 -1 nan nan nan nan nan nan nan nan nan nan nan nan nan nan nan nan -1 nan -2 -2 -3 -1 -1 -3 -1 nan nan nan
-0 -0 -0 -0 -0 -0 -0 -0 -0 -0 -0 -0 -0 -0 -0 -1 -0 -0 -0 -0 -0 -0 -0 -0 -0 -0 -0 -0 -0 -0 -0 -0 -5 -5 -9 -0 nan nan nan -1 -1 -1 -1 -1 -1 -2 -2 -1 -1 -13 -22 nan -34 -34 nan nan nan -0 nan nan nan nan nan nan nan nan nan nan nan nan nan nan nan nan nan nan nan nan -2 -2 -2 nan -2 nan nan nan
-0 -0 -0 -0 -0 -0 -0 -1 -0 -0 -0 -0 -0 -0 -0 -1 -1 -1 -0 -0 -0 -0 -0 -0 -0 -0 -0 -0 -0 -0 -0 -0 -2 -2 -5 -0 -0 -0 -0 -0 -0 -0 -0 -1 -1 -3 -3 -2 -2 -18 nan nan nan nan nan nan nan nan nan nan nan nan nan nan nan nan nan nan nan nan nan nan nan nan nan nan nan nan nan -4 -4 -3 -3 -1 -1 nan
-0 -0 -0 -0 -0 -0 -0 -0 -0 -0 -0 -0 -0 -0 -0 -0 -2 -2 -0 -0 -0 -0 -0 -0 -0 -0 -0 -0 -0 -0 -0 -0 -0 -0 -0 -0 -0 -0 -0 -0 -0 -0 -0 -1 -1 -2 -3 -6 -6 -16 -27 nan nan nan nan nan nan nan nan nan nan nan nan nan nan nan nan nan nan nan -1 nan nan nan nan nan nan nan nan nan nan -3 -3 -1 -1 nan
-0 -0 -0 -0 -0 -0 -0 -0 -0 -0 -0 -0 -0 -0 -0 -0 -0 -0 -0 -0 -0 -0 -1 -1 -1 -0 -0 -0 -0 -0 -0 -0 -0 -0 -0 -0 -0 -0 -0 -0 -0 -1 -0 -1 -1 -1 -2 -9 -9 -37 -37 nan nan nan -2 nan nan nan nan -2 -2 nan nan nan nan nan nan nan nan nan nan nan nan nan nan nan nan nan nan nan nan nan nan nan nan nan
-0 -0 -0 -0 -0 -0 -0 -0 -0 -0 -0 -0 -0 -0 -0 -0 -0 -0 -0 -0 -0 -0 -0 -0 -0 -0 -0 -0 -0 -0 -3 -0 -0 -0 -0 -0 -0 -0 -0 -0 -0 -0 -0 nan nan nan nan nan nan nan -8 nan nan nan -1 -1 -1 nan nan -3 -3 nan nan nan nan nan nan nan nan nan nan nan nan nan nan nan nan nan nan nan nan nan nan nan nan nan
-0 -0 -0 -0 -0 -0 -0 -0 -0 -0 -0 -0 -0 -0 -0 -0 -0 -0 -0 -0 -0 -0 -0 -0 -0 -0 -0 -0 -0 -0 -2 -0 -0 -0 -0 -0 -0 -0 -0 -0 -0 -0 -0 -0 -0 -0 -0 -0 -0 -0 -0 nan nan nan -2 -1 -1 nan nan -3 -3 -3 nan nan nan nan nan -1 nan nan nan -3 -3 -3 nan nan nan nan nan nan nan nan nan nan nan nan
-0 -0 -0 -0 -0 -0 -0 -0 -0 -0 -0 -0 -0 -0 -0 -0 -0 -0 -0 -0 -0 -0 -0 -0 -0 -0 -0 -0 -1 -1 -3 -0 -0 -0 -0 -0 -0 -0 nan -0 -0 -0 -0 -0 -0 -0 -0 -0 -0 nan nan -0 nan nan -3 -1 -1 nan -1 -1 -1 -2 nan nan nan -1 -1 -1 -1 -1 -1 -1 -1 -1 nan nan nan nan nan nan nan nan nan nan nan -3
Wind_Speed
4 4 3 3 4 5 6 8 8 8 8 7 5 4 4 4 4 5 5 5 6 6 6 6 6 6 6 7 7 8 9 10 10 10 10 10 9 8 8 7 6 6 5 5 5 5 6 6 6 7 7 7 8 9 9 10 11 12 13 13 14 14 14 14 14 14 14 15 15 15 15 14 13 12 10 10 10 10 9 9 10 10 10 11 11 12
4 4 4 5 6 6 7 9 9 9 9 9 7 5 4 4 4 4 4 5 6 6 6 5 5 6 7 6 7 9 9 10 10 10 10 10 9 9 8 7 7 6 6 6 6 6 6 6 6 7 7 8 8 9 9 10 11 11 12 13 13 14 14 15 15 15 15 15 15 15 15 14 12 11 10 10 10 11 11 11 10 10 11 11 12 13
6 5 5 5 6 7 7 9 10 9 9 9 8 5 4 4 4 4 4 5 5 6 6 5 5 6 7 6 7 9 10 10 10 10 10 10 9 9 8 8 8 7 7 7 7 7 7 7 7 8 8 8 9 9 10 10 10 11 11 11 12 13 13 14 14 14 14 14 15 14 14 13 11 10 10 11 11 12 12 12 11 11 11 11 12 13
7 6 6 5 6 7 8 9 9 8 7 6 6 5 4 5 5 4 4 4 5 5 6 6 5 5 6 6 7 8 10 10 10 10 10 10 9 9 9 9 9 8 8 8 8 8 8 8 8 8 9 9 10 10 10 11 11 11 11 11 11 11 12 12 13 13 13 13 13 13 13 12 11 11 11 12 12 12 12 12 12 11 11 12 13 14
8 7 7 6 6 7 7 8 8 7 4 4 4 4 5 5 5 4 3 4 5 5 5 5 5 5 5 5 6 8 10 10 10 10 10 10 10 10 10 10 10 9 10 10 10 10 10 10 10 10 10 10 10 11 11 11 11 11 11 11 11 11 11 12 12 12 12 12 12 12 12 12 12 12 12 12 13 13 13 12 12 12 12 13 14 14
8 8 7 6 6 6 6 6 6 5 4 3 4 5 5 5 5 4 4 4 5 5 4 4 5 5 5 5 6 8 9 10 10 10 10 10 10 10 11 11 11 11 11 11 11 11 11 11 11 11 11 11 11 12 12 12 12 12 12 12 12 12 12 12 12 12 12 12 12 12 12 13 12 12 12 12 13 13 13 13 13 12 12 13 14 15
8 8 7 7 6 6 5 6 5 4 4 5 5 5 5 5 5 5 6 5 5 5 4 4 4 5 6 6 6 7 9 10 10 11 11 11 12 12 12 12 12 12 12 12 13 13 13 13 13 13 13 13 13 13 13 13 13 13 12 12 12 12 12 12 12 12 12 12 12 12 13 13 13 12 12 12 13 13 14 13 13 13 13 14 15 16
9 8 7 7 6 6 6 6 5 5 6 6 7 6 6 5 5 6 6 6 6 6 5 5 5 5 6 7 7 7 8 9 9 10 11 12 12 13 13 14 14 14 14 14 14 14 14 14 14 14 14 14 14 14 14 14 13 13 13 13 13 12 13 13 12 12 12 12 12 13 13 13 13 12 12 12 12 12 13 13 14 14 14 15 16 16
10 9 8 8 8 8 7 7 6 6 6 6 6 7 7 7 6 5 6 6 6 6 5 6 6 6 7 7 7 7 7 8 8 8 8 9 10 11 12 13 14 15 15 15 15 16 16 16 15 15 15 15 15 15 15 14 14 14 14 13 13 13 13 13 13 12 12 13 13 14 14 13 13 12 12 11 11 11 12 13 14 15 16 16 16 17
10 10 9 8 8 8 7 7 7 6 5 5 5 6 7 7 7 6 6 6 6 6 5 6 6 7 7 7 7 7 7 7 8 8 8 8 8 8 9 10 11 12 14 15 16 16 16 16 17 17 16 16 16 16 15 15 14 14 14 14 14 13 13 13 13 13 13 14 14 15 15 14 13 12 11 11 11 11 11 12 14 15 16 17 17 17
9 10 9 8 7 6 6 7 5 2 2 3 3 4 5 6 7 7 7 8 7 6 5 5 6 6 6 6 6 6 5 6 6 7 8 7 7 7 8 8 9 10 12 13 14 15 16 17 17 17 17 16 16 15 15 15 15 14 14 14 14 14 14 13 14 14 14 15 15 16 15 14 13 13 12 11 10 10 10 11 13 15 17 18 18 19
8 8 8 7 7 6 5 4 2 1 2 2 3 5 6 6 6 7 8 9 8 7 6 5 5 5 6 6 5 4 4 4 4 5 5 6 6 7 7 7 8 9 10 12 13 14 15 16 17 17 17 16 16 15 15 15 15 15 15 15 15 15 14 14 14 15 15 16 16 16 16 15 14 13 12 11 10 10 9 10 11 14 16 18 19 20
8 7 7 7 7 7 6 5 3 2 3 4 6 7 8 7 7 7 8 8 9 8 6 5 4 5 5 5 5 4 4 4 4 4 4 5 5 6 6 6 7 7 8 8 9 11 13 15 16 16 16 16 16 16 15 15 15 15 15 16 16 15 15 15 15 15 16 16 16 16 16 15 14 13 12 11 10 9 8 8 9 11 14 17 19 20
7 7 7 7 7 7 7 7 6 5 6 7 8 8 8 7 7 7 7 8 8 8 7 6 6 5 5 5 5 5 4 4 4 4 5 5 6 6 6 6 6 6 6 6 7 8 9 11 12 13 15 16 16 16 16 16 15 15 16 16 16 16 16 15 16 16 16 17 17 16 16 15 15 14 13 12 11 10 9 8 8 8 9 12 15 17
7 7 8 8 8 7 7 7 7 8 7 7 7 8 8 8 8 8 8 8 7 7 6 7 7 7 5 5 5 6 5 5 5 5 6 6 6 6 6 6 6 5 5 6 6 7 8 8 8 9 11 14 16 16 16 16 16 16 16 16 17 16 16 16 16 16 17 17 17 17 16 16 15 14 14 13 12 11 10 9 9 8 8 9 10 13
7 8 8 8 8 7 7 7 7 8 8 7 7 7 8 8 8 8 7 7 7 6 6 7 7 7 6 5 5 5 6 6 6 6 6 6 6 5 6 5 6 6 6 6 6 6 6 7 8 9 10 13 15 16 16 17 17 17 17 17 17 17 16 16 17 17 17 17 17 17 17 17 16 15 15 14 13 12 12 11 10 9 9 9 9 10
7 8 8 8 8 8 7 7 8 8 8 7 7 7 8 8 7 7 7 6 5 5 5 5 5 6 5 4 4 5 6 5 5 5 6 6 5 5 5 5 5 6 6 6 6 6 6 7 7 8 9 11 13 15 16 17 17 18 18 17 17 17 17 17 17 17 18 18 18 18 18 17 17 16 15 15 14 13 13 12 11 10 10 10 10 10
8 8 8 8 8 8 7 7 7 7 8 8 7 7 7 7 7 7 7 5 5 5 5 5 5 5 5 4 3 4 6 5 5 5 5 5 5 4 4 5 5 5 6 6 6 6 6 7 7 8 8 10 12 13 15 17 17 18 18 18 18 17 17 17 17 18 18 18 18 18 18 18 17 17 16 15 15 14 14 13 12 11 11 10 10 10
8 8 8 8 8 8 7 7 7 7 7 8 7 7 8 8 7 7 6 6 6 6 6 6 5 6 6 6 3 3 5 5 5 5 5 5 4 4 4 4 5 5 6 6 6 6 6 6 8 9 9 10 11 12 14 16 17 18 18 18 18 18 18 18 18 18 18 18 18 18 18 18 17 17 17 16 15 15 14 14 13 12 12 11 11 11
9 9 9 8 8 8 8 8 8 8 8 8 7 7 7 7 7 7 7 7 7 8 7 7 7 8 8 8 5 4 5 5 5 5 5 5 4 4 5 4 5 5 6 6 6 6 6 7 7 8 10 10 11 12 13 15 17 18 18 19 19 19 19 19 19 19 18 18 18 18 18 18 18 17 17 16 16 15 15 15 14 13 13 12 12 12
10 10 9 8 8 8 8 7 8 8 9 7 7 6 6 6 6 6 7 7 8 8 8 7 8 9 8 9 6 5 7 6 6 5 4 4 4 4 4 5 5 6 6 6 6 6 6 7 7 7 9 11 11 12 13 15 16 18 18 19 19 19 19 19 19 19 19 19 19 18 18 18 18 18 17 17 16 16 16 15 15 14 14 13 13 12
10 11 10 10 10 9 8 8 9 10 10 9 7 6 6 5 5 5 4 5 6 7 7 8 8 9 8 9 5 4 8 7 6 5 3 4 5 4 4 4 5 6 6 6 6 6 6 6 7 7 9 11 12 12 13 15 16 17 18 19 19 19 19 20 20 20 20 19 19 19 19 19 19 18 18 17 17 17 16 16 15 15 14 14 13 13
11 11 11 11 11 10 9 9 10 10 10 10 9 8 6 6 6 6 5 5 5 5 5 6 7 7 8 6 3 4 6 6 6 5 4 6 6 5 4 4 4 5 6 6 5 5 6 6 6 7 8 10 11 12 13 14 16 17 18 18 19 19 19 20 20 20 20 20 20 20 20 19 19 19 18 18 17 17 17 16 16 15 15 14 14 13
12 12 11 11 10 10 9 9 9 9 8 9 9 9 8 8 8 8 7 7 6 6 5 5 6 6 6 4 2 2 4 5 5 4 4 6 6 4 3 4 4 5 6 5 5 5 5 5 5 6 7 9 10 11 13 14 15 17 18 18 18 19 19 20 20 20 20 20 20 20 20 20 20 19 19 18 18 17 17 16 16 15 15 14 13 13
11 11 11 10 10 11 11 11 11 10 10 9 9 8 8 9 10 10 9 8 8 7 6 6 7 6 5 3 3 3 3 4 4 4 4 4 5 4 3 4 4 5 5 4 3 3 4 4 5 5 6 7 9 10 12 14 15 16 17 18 19 19 20 20 20 20 20 20 20 20 20 20 20 20 19 19 18 18 17 17 16 15 15 14 13 12
14 14 14 15 16 17 18 18 18 17 16 13 11 9 9 9 9 9 9 9 8 8 8 9 8 7 5 3 3 3 3 4 5 5 4 4 4 4 3 4 4 5 5 3 2 2 3 4 4 5 5 6 7 9 11 13 14 16 17 18 19 19 20 20 21 21 21 20 20 21 21 21 20 20 20 19 19 18 18 17 16 15 14 13 12 12
21 21 22 23 23 24 24 24 24 24 24 21 18 15 12 9 9 9 10 9 9 8 9 9 9 8 6 4 4 4 3 4 5 5 5 4 4 4 3 3 4 4 5 3 2 2 3 4 4 4 5 5 5 7 9 11 13 15 16 18 19 19 20 21 21 21 21 21 21 21 21 21 21 21 20 20 19 19 18 17 17 16 14 12 11 10
23 23 24 24 25 25 26 27 27 27 27 27 26 24 18 12 10 10 10 9 8 8 9 9 9 8 7 5 4 3 3 4 5 5 5 4 4 4 3 3 3 4 4 2 1 1 2 3 4 4 4 4 4 5 7 9 11 13 15 17 18 19 20 20 21 21 21 21 21 21 21 21 21 21 21 20 20 19 19 18 17 16 13 11 8 6
19 21 22 23 24 25 26 26 26 26 26 27 26 24 17 12 10 9 8 6 6 8 9 8 8 8 8 7 5 4 4 4 5 5 5 4 4 3 2 3 3 4 3 2 1 1 3 4 4 5 4 4 4 4 5 6 7 9 12 16 18 19 20 20 21 21 21 21 21 22 22 22 22 21 21 21 20 20 19 19 17 15 11 9 7 6
13 15 16 18 19 20 20 19 19 19 21 21 20 17 12 9 8 8 5 4 5 7 8 7 7 7 7 7 6 5 5 5 5 6 6 5 4 3 3 3 4 4 3 2 2 2 3 4 4 5 4 4 4 4 4 4 4 5 7 12 16 18 20 20 21 21 21 22 22 22 22 22 22 22 22 21 21 21 20 19 16 13 8 7 7 6
9 10 11 12 12 12 11 11 11 12 13 13 13 11 8 7 7 7 6 5 5 6 7 7 6 6 6 6 6 5 5 4 5 7 7 5 4 4 4 4 4 4 4 3 3 3 3 3 4 4 4 4 4 4 4 4 3 3 4 6 9 13 18 20 20 20 21 22 22 23 23 22 22 22 22 22 21 21 21 20 16 12 8 7 7 7
10 10 10 9 9 8 8 8 8 8 8 9 8 8 7 7 7 7 6 6 6 6 6 6 6 6 6 6 6 5 4 2 4 7 8 5 4 4 4 5 4 4 4 4 4 3 3 2 2 3 3 3 4 4 4 4 3 3 3 4 5 9 15 17 18 18 19 21 22 23 23 23 22 22 22 22 22 22 21 20 17 12 8 8 7 7
10 10 9 9 9 8 8 8 8 8 8 8 8 8 7 7 7 7 7 7 6 7 7 7 7 7 6 7 6 5 4 2 3 5 7 5 4 3 4 5 4 4 4 4 4 4 3 2 1 1 2 2 3 3 4 4 3 3 3 4 4 6 11 13 14 14 14 16 18 20 22 22 22 22 22 22 22 22 21 20 18 14 10 8 7 7
11 10 10 10 9 9 9 9 9 9 9 8 8 8 8 8 8 8 7 7 7 7 7 7 8 8 7 7 6 5 4 3 3 4 6 5 4 3 4 5 5 4 4 4 4 3 3 2 1 1 1 1 2 3 3 4 3 3 3 3 4 5 7 9 9 9 10 10 11 13 15 16 19 20 21 21 21 21 21 20 18 15 12 9 8 7
10 10 10 10 9 9 9 9 9 9 8 8 8 8 8 8 8 8 7 7 7 7 7 7 8 8 8 8 7 7 6 4 3 4 6 5 4 3 3 4 5 4 4 4 4 3 2 2 2 2 1 1 2 2 3 2 2 2 2 2 3 4 6 7 7 7 8 8 8 8 9 10 12 14 15 17 19 20 20 20 18 16 14 12 10 8
9 10 9 9 8 8 8 8 8 8 7 7 7 7 7 8 8 8 7 7 7 7 7 8 8 8 8 8 8 8 9 6 4 4 6 6 5 4 3 4 4 4 4 5 4 4 3 3 3 4 4 3 2 2 2 1 1 1 2 2 2 3 5 6 7 7 7 7 7 7 7 8 8 9 11 15 18 19 20 20 19 17 15 13 11 10
9 9 9 8 8 7 7 7 7 6 6 6 6 6 7 7 7 7 7 6 6 7 7 8 8 9 9 9 9 9 9 8 6 6 7 6 6 5 4 4 4 5 5 5 5 4 4 4 4 4 4 4 3 2 2 2 2 2 2 2 2 3 5 6 7 8 8 8 8 7 8 8 8 8 10 14 17 18 19 19 18 17 15 14 12 11
8 8 8 8 7 7 7 6 6 6 6 6 6 6 7 7 8 8 7 6 7 7 7 7 8 9 11 11 10 10 10 11 10 9 8 7 7 6 6 5 5 6 7 6 6 5 5 5 4 4 4 5 4 4 3 3 3 4 3 3 2 3 4 6 7 8 8 8 8 8 8 8 8 8 9 11 12 12 12 13 14 14 14 13 12 11
7 7 8 8 7 7 7 6 6 6 6 6 6 6 6 7 8 8 7 7 7 8 9 8 8 9 9 10 11 11 11 10 9 8 8 8 8 8 7 7 7 7 7 7 6 6 6 6 5 5 4 5 5 4 4 4 4 5 4 3 2 2 3 5 7 8 8 8 9 9 8 7 7 8 8 9 9 9 9 9 10 11 11 9 9 10
8 8 8 8 8 7 7 7 7 7 7 7 7 7 6 7 7 7 7 8 8 8 9 10 9 9 9 9 10 10 10 8 8 8 7 7 7 7 7 7 7 7 7 7 7 7 7 7 6 6 6 5 5 4 4 5 5 5 6 4 3 3 4 5 6 7 7 8 9 9 8 8 8 8 8 9 9 9 9 9 9 9 9 8 7 8
8 8 8 8 8 8 8 7 7 7 7 7 7 6 6 6 7 7 7 7 8 8 7 8 8 8 9 9 10 10 10 9 9 8 7 7 8 8 8 7 6 6 6 7 6 7 7 8 8 8 7 7 6 6 5 6 7 8 8 7 5 5 5 5 6 7 7 8 8 9 9 9 9 9 9 9 9 9 9 9 9 9 9 8 8 8
8 8 7 7 7 7 6 6 7 7 7 7 7 7 7 7 7 7 7 7 7 7 6 7 7 7 8 8 9 10 10 9 8 8 8 8 8 9 9 8 6 6 6 7 7 8 8 8 8 8 8 7 6 6 5 6 7 8 9 8 6 5 4 5 5 5 7 8 8 8 10 9 9 9 9 9 8 8 8 9 10 10 10 8 8 7
7 7 7 7 6 6 7 7 7 7 7 6 7 7 7 7 7 7 7 7 7 7 6 6 6 6 7 7 8 8 8 8 8 8 8 7 7 8 8 8 8 7 7 7 7 8 8 8 8 8 8 7 7 7 7 7 7 7 8 8 7 6 4 4 5 5 7 8 8 8 8 8 8 8 8 8 8 7 8 9 10 11 11 9 8 7
7 7 6 6 6 6 6 6 6 6 6 6 7 7 7 7 7 7 7 6 6 5 4 4 5 6 7 7 7 7 7 7 7 7 7 7 7 7 8 9 9 9 9 8 7 6 6 7 8 8 7 6 6 7 7 7 7 7 7 8 8 8 7 6 6 7 7 7 7 8 8 8 8 7 7 7 7 7 8 8 8 9 9 8 8 7
6 6 5 5 5 5 5 5 5 6 6 6 7 7 6 6 6 6 6 5 5 6 5 5 5 5 6 6 6 6 6 7 6 5 5 6 7 8 8 9 9 9 9 9 8 7 6 6 6 6 6 6 6 7 7 7 8 8 8 8 8 8 7 6 7 8 8 8 8 8 8 8 8 8 7 7 7 7 7 8 9 9 8 8 8 8
5 5 5 5 5 5 6 6 6 6 6 6 6 6 6 6 5 5 6 6 6 6 6 5 5 5 6 6 6 6 6 7 6 5 4 5 6 7 8 8 8 8 8 8 8 8 7 6 6 6 6 6 7 7 7 7 8 8 8 9 8 7 5 6 7 8 9 8 8 9 9 9 9 8 8 8 7 7 7 8 9 9 9 8 8 8
5 6 6 5 6 6 6 6 6 6 7 7 7 7 7 7 6 7 7 7 7 7 6 6 6 7 7 7 6 6 7 7 7 6 5 5 5 6 6 6 7 7 7 7 8 8 8 8 7 7 7 7 7 7 7 7 7 8 8 8 8 7 6 6 7 8 9 8 8 9 11 10 9 8 8 8 7 7 6 7 7 8 8 8 8 8
5 6 6 6 6 6 6 6 6 6 7 7 7 7 7 7 7 8 7 7 7 7 6 6 7 7 8 7 7 7 7 8 7 7 6 5 5 5 5 5 5 6 6 6 6 6 6 7 7 8 8 8 7 7 7 7 7 7 8 8 8 8 7 7 7 8 8 8 9 10 11 10 10 9 9 8 7 7 6 6 6 7 7 7 7 8
5 5 5 5 6 6 6 6 6 7 7 7 7 7 7 8 8 8 7 7 7 7 7 7 7 7 7 7 7 7 7 7 7 6 6 4 4 4 4 4 4 4 4 4 3 3 3 3 3 3 4 6 6 7 7 7 7 7 7 7 8 7 7 6 7 7 7 8 9 10 11 10 9 9 9 9 9 8 8 7 7 6 6 7 7 7
5 5 5 6 6 6 6 6 7 7 7 8 8 7 7 7 7 7 7 7 7 7 7 7 8 8 7 7 7 7 6 6 6 6 6 4 3 3 3 4 4 4 4 3 2 1 1 1 1 2 3 2 2 4 7 7 7 6 6 6 6 6 6 6 6 7 7 7 8 9 10 9 8 8 8 9 9 9 8 7 7 6 6 6 7 7
6 6 6 6 6 6 6 7 7 7 8 8 8 7 7 7 7 7 7 7 7 7 7 7 8 8 8 7 7 6 6 6 6 6 6 4 3 3 4 4 4 4 4 4 3 3 2 2 1 1 1 2 3 1 4 6 7 7 6 6 6 5 5 6 6 7 7 7 7 8 9 9 8 8 8 8 8 8 8 8 7 7 6 6 7 7
Wind_Direction
272 271 270 265 265 265 263 257 257 260 262 257 246 226 203 213 231 245 249 251 250 247 243 240 236 230 222 213 208 205 202 200 198 198 198 198 199 201 202 205 207 211 214 217 220 222 224 225 225 225 226 226 226 226 226 225 224 224 223 223 222 222 221 222 222 223 223 221 216 210 205 202 199 196 193 193 194 197 201 208 215 221 224 222 216 210
250 248 246 241 246 254 261 255 252 252 257 257 252 239 211 213 221 230 231 237 241 243 242 237 234 230 226 218 213 209 207 205 203 201 200 201 202 203 205 208 212 216 221 226 230 233 234 235 233 231 229 228 227 226 226 225 225 225 225 224 224 223 223 222 222 222 222 221 216 212 207 203 199 195 193 193 194 197 201 207 212 217 220 218 214 209
244 238 234 230 233 241 255 256 253 250 250 257 259 254 233 231 230 228 222 224 228 231 234 230 228 227 226 221 215 211 210 208 206 205 204 204 205 207 209 212 216 220 224 228 232 235 238 239 238 236 233 231 228 227 225 224 224 224 224 224 224 224 224 223 223 222 221 219 216 211 207 202 198 195 195 196 197 199 202 205 209 213 215 214 212 208
261 258 251 240 233 236 248 257 258 255 249 257 264 266 257 253 248 241 229 228 227 226 226 222 221 222 224 221 216 212 211 211 210 209 208 209 210 212 214 217 219 222 226 229 232 235 237 239 239 239 237 234 231 228 226 224 223 223 223 223 224 225 226 225 224 222 219 216 212 208 204 200 198 197 199 201 202 203 204 206 208 210 210 210 209 207
268 268 268 262 254 248 246 254 257 257 248 251 258 261 257 256 255 252 242 239 237 232 225 220 218 219 220 220 215 211 211 213 214 215 215 215 217 218 219 221 223 226 228 231 233 235 236 238 239 239 238 236 234 230 227 225 223 222 221 222 223 224 227 227 226 223 219 213 208 204 200 198 198 199 202 204 205 206 206 207 207 208 209 208 207 205
268 268 270 268 265 262 258 256 256 254 244 243 247 250 250 250 252 250 242 239 237 235 229 223 221 221 221 221 215 211 211 214 217 220 221 222 223 224 225 225 227 228 230 232 234 235 236 236 237 237 237 236 235 232 229 226 223 222 221 221 222 223 226 227 227 224 218 210 204 199 196 196 197 200 203 206 208 209 209 209 209 209 208 207 206 203
266 265 267 267 268 268 268 264 259 252 247 249 248 246 242 242 242 242 240 236 233 229 225 223 224 225 225 222 216 212 211 214 218 222 225 227 228 228 228 228 229 230 231 233 234 235 235 235 235 235 235 235 234 232 230 226 224 222 221 221 221 223 225 226 226 223 216 208 201 196 193 194 196 198 202 206 209 211 212 211 211 210 209 207 205 201
264 263 261 263 264 265 263 259 253 246 245 253 255 252 243 233 228 228 232 234 233 229 223 222 223 224 225 221 216 213 212 214 216 218 222 224 225 226 227 228 229 230 231 232 233 234 235 235 235 234 233 233 232 231 230 227 224 222 221 220 221 222 224 225 224 221 215 206 198 193 191 192 194 196 200 204 208 211 212 213 213 212 210 208 204 200
265 263 258 254 255 256 256 251 240 230 228 240 251 258 259 252 241 229 223 227 228 228 225 225 226 226 225 220 217 214 215 218 220 221 222 221 221 221 223 224 226 228 229 230 231 233 234 234 234 234 233 232 231 230 229 227 224 222 220 220 220 221 222 223 223 219 213 204 197 192 189 190 191 194 197 201 205 208 212 214 214 214 212 208 204 199
266 265 263 256 251 249 253 253 246 232 213 226 243 257 266 268 267 261 249 238 228 221 220 227 232 233 231 224 218 214 215 220 225 230 233 233 233 232 228 227 228 228 229 230 230 231 232 233 234 234 234 233 231 230 229 227 224 222 220 219 219 219 220 221 221 218 212 203 196 190 187 187 188 190 193 197 201 205 209 212 215 216 214 209 204 199
267 266 267 263 257 252 252 257 260 248 186 217 239 251 257 263 268 270 267 258 244 228 215 222 230 235 238 234 225 216 211 217 223 227 233 235 238 239 237 237 236 235 234 232 232 232 232 233 234 234 234 234 232 231 229 227 225 222 220 219 218 218 218 219 219 216 211 202 194 189 186 185 185 186 188 191 195 200 204 209 213 215 215 210 205 199
266 265 265 265 263 260 254 253 250 145 158 215 239 247 248 247 250 255 259 260 255 245 226 218 220 228 236 239 234 222 209 216 222 225 227 227 227 228 231 233 234 235 234 233 232 232 232 233 233 234 235 234 234 232 231 228 226 223 220 219 217 217 216 217 216 214 209 200 193 187 184 183 182 183 183 184 186 190 195 201 207 212 213 210 205 200
264 265 264 264 264 263 259 248 226 194 205 228 241 248 252 247 243 243 247 251 254 253 245 227 217 219 226 233 233 227 215 219 224 228 230 227 224 222 224 226 226 226 226 228 228 227 228 229 231 232 233 234 233 233 232 230 227 224 221 218 217 216 215 215 214 212 206 198 191 186 182 181 180 179 178 177 176 176 178 184 193 201 207 207 205 201
270 270 268 265 262 261 261 256 247 237 232 235 241 246 251 251 246 242 242 245 248 251 254 250 244 235 224 220 220 220 217 222 226 231 233 231 228 226 225 228 227 224 221 224 226 224 220 220 224 227 228 230 231 232 231 230 228 225 222 219 216 215 213 213 211 208 204 196 189 184 180 179 178 177 175 171 168 165 162 162 167 177 187 194 198 198
271 270 268 266 264 263 262 262 259 255 251 247 246 247 248 247 245 242 240 242 244 246 250 254 255 253 243 222 210 206 208 217 224 230 234 232 228 224 224 228 230 229 225 227 230 228 219 218 221 223 222 223 225 226 225 226 225 223 221 218 216 213 212 210 208 205 200 194 188 183 179 178 177 176 173 170 166 161 157 153 152 152 155 166 176 182
272 271 269 268 266 265 263 263 263 263 262 259 255 251 247 246 243 240 239 242 244 245 248 253 257 258 252 227 199 190 195 211 221 229 235 234 227 218 215 222 228 230 228 229 232 232 226 224 226 227 226 222 221 220 218 221 222 221 219 217 214 212 209 207 205 201 197 192 187 182 179 177 176 175 173 170 166 162 158 155 152 150 147 146 150 156
273 272 272 272 270 268 268 267 267 267 267 265 262 258 254 253 250 247 244 243 243 244 245 249 253 256 259 234 196 180 185 202 216 227 234 236 226 210 199 211 223 230 230 231 232 232 230 229 229 230 231 225 220 217 215 217 218 218 217 215 213 210 207 204 201 198 194 190 186 182 178 177 175 174 172 170 167 164 161 159 157 155 152 149 147 147
264 266 269 270 270 270 270 269 269 270 272 270 269 267 264 261 258 256 253 249 245 242 242 242 244 249 262 251 211 173 180 196 210 223 231 235 224 200 186 201 218 229 235 235 234 234 233 234 232 232 233 226 220 216 214 215 216 216 215 213 211 208 204 201 198 195 192 188 185 181 177 175 174 172 170 168 166 164 161 160 159 158 156 153 150 148
257 258 261 263 266 268 270 270 270 271 271 269 268 267 265 263 261 258 255 251 247 245 245 246 246 248 256 255 231 169 179 192 204 217 228 234 219 187 165 193 213 226 236 238 237 236 236 238 238 237 236 232 226 220 215 214 215 215 213 211 209 206 202 198 195 192 190 187 183 179 176 173 171 169 167 165 164 162 160 160 159 158 156 154 151 149
259 257 257 261 266 269 267 265 264 266 268 275 281 285 284 280 273 265 255 249 245 244 244 244 245 247 250 253 237 187 170 188 200 212 225 235 223 191 161 187 205 219 232 236 236 234 234 236 237 237 235 233 229 223 218 215 214 213 212 210 208 204 200 196 193 190 187 184 180 176 173 170 168 166 164 162 161 160 159 159 158 157 156 154 152 151
259 257 254 257 261 264 263 263 266 271 277 289 297 300 297 294 285 274 266 257 248 242 235 235 239 242 239 249 238 189 163 181 194 206 223 235 231 207 170 185 201 216 229 233 230 228 229 232 233 233 232 231 228 224 219 215 214 213 211 209 206 203 199 195 191 188 185 181 177 173 170 168 165 163 162 161 160 159 159 158 158 157 156 155 154 153
260 260 259 258 259 260 263 267 270 273 277 283 283 281 282 286 284 281 279 273 263 254 246 242 242 242 239 242 229 166 162 179 191 201 219 240 237 218 168 186 202 216 230 231 226 221 221 225 228 230 230 230 227 223 219 215 213 212 210 208 205 201 197 193 189 186 182 178 175 171 168 166 164 162 161 160 160 159 159 159 159 158 158 157 156 157
260 262 265 263 262 263 266 267 268 269 271 271 270 270 273 279 283 286 294 295 293 288 283 276 269 262 254 248 216 153 167 183 192 200 212 243 242 224 161 185 203 217 231 231 224 217 215 221 225 229 230 230 227 222 218 215 212 210 208 205 202 198 194 190 186 183 180 176 173 170 168 166 164 162 161 161 160 160 159 159 159 159 159 159 159 159
256 259 262 261 262 263 266 266 266 266 267 267 268 269 270 272 274 277 282 286 290 294 299 297 288 276 264 252 224 169 182 192 195 200 213 240 246 237 157 176 200 220 231 229 221 212 211 219 224 227 228 230 228 223 218 214 211 208 205 201 197 193 189 186 183 180 177 174 172 169 167 166 164 163 162 161 161 160 160 160 160 160 160 160 161 162
252 254 256 257 258 258 260 261 262 264 265 265 266 267 268 269 270 271 273 274 276 280 285 285 279 271 261 241 221 204 198 203 202 203 213 233 240 231 157 174 199 220 230 222 208 200 212 222 226 227 227 229 228 225 219 213 209 206 202 197 193 189 185 182 180 177 175 173 171 169 168 167 166 165 163 163 162 161 160 160 160 161 161 161 162 164
252 253 256 258 260 260 260 261 261 261 261 262 263 264 266 269 271 272 271 268 268 269 273 273 272 269 265 251 232 216 193 202 208 212 213 229 235 226 178 182 203 223 233 215 188 184 218 229 231 229 228 228 227 224 220 213 208 203 199 194 189 185 182 180 178 176 174 172 171 170 169 169 167 166 165 163 163 162 161 161 160 160 160 160 162 166
253 255 257 259 261 262 263 262 261 260 259 259 259 261 264 268 269 268 264 261 260 260 260 261 264 266 267 258 245 226 189 193 205 214 214 225 234 230 193 184 203 224 235 221 194 192 226 238 238 235 231 227 226 225 222 216 210 203 197 192 187 184 181 179 177 175 174 173 172 171 171 170 169 167 166 164 163 163 162 161 160 159 159 158 161 166
252 254 256 258 260 261 262 262 261 260 259 258 258 258 260 259 257 255 254 256 257 255 252 251 254 258 259 254 249 236 202 196 200 205 207 215 230 231 199 180 197 218 230 228 217 217 238 246 247 243 238 230 225 224 225 221 214 206 198 192 188 184 181 179 178 176 175 174 173 172 172 171 170 168 166 165 164 163 162 161 159 158 157 158 160 165
253 253 254 256 257 259 261 261 261 260 258 258 257 257 256 252 248 247 249 256 260 259 255 250 248 248 250 251 252 247 227 210 197 190 191 205 225 230 193 178 191 207 213 219 233 239 237 239 240 240 239 232 227 224 225 225 220 213 204 195 190 186 183 181 179 178 176 175 174 174 173 172 170 169 167 165 164 163 162 160 159 158 158 161 163 166
257 256 255 254 254 256 258 259 259 258 257 257 257 258 257 254 251 250 251 258 264 267 267 263 256 251 249 250 250 247 238 215 189 176 179 200 217 219 187 186 194 199 194 200 224 239 234 223 219 220 223 225 226 224 222 221 224 221 212 198 193 189 185 183 181 179 178 176 175 175 174 172 170 168 167 165 164 163 162 161 160 159 161 164 167 169
273 268 264 260 258 257 258 259 260 260 258 258 258 259 259 259 261 261 260 257 262 269 277 278 274 267 259 254 249 245 242 211 180 171 178 198 213 214 193 197 198 196 191 199 217 234 237 214 198 194 200 211 220 224 219 216 218 220 217 202 196 191 187 184 181 180 179 178 176 175 174 172 170 168 166 165 164 163 163 162 162 162 163 166 169 171
280 277 275 274 273 272 270 269 269 268 267 265 263 261 259 261 264 267 266 262 261 266 274 280 282 280 273 266 260 256 257 232 184 176 182 196 209 211 201 205 202 195 193 204 218 234 248 221 176 163 182 200 214 220 217 213 214 217 220 206 199 192 187 184 182 180 179 178 176 175 173 171 169 168 166 165 165 165 164 165 165 165 166 168 169 171
274 273 272 273 273 273 271 269 268 267 266 266 265 263 261 260 261 263 265 265 264 264 267 271 275 277 277 273 270 268 271 269 213 194 195 201 204 203 201 207 204 195 189 204 218 235 255 252 159 127 171 199 214 219 217 212 211 216 222 209 199 189 184 182 181 180 178 177 175 174 172 170 168 167 166 166 166 166 167 168 169 169 168 167 168 168
267 265 264 264 263 261 260 259 258 258 257 257 257 257 257 257 256 256 257 260 261 263 265 266 268 270 272 273 272 272 271 272 244 223 218 219 213 202 196 205 203 194 184 197 208 221 249 256 226 141 165 194 213 221 220 213 211 215 229 219 198 183 178 177 176 174 172 171 170 170 171 168 167 167 166 167 167 169 170 171 172 172 171 169 166 164
260 260 260 259 259 258 257 256 255 254 254 253 252 252 252 253 252 251 250 251 253 255 257 260 262 264 265 268 269 269 267 271 253 233 233 235 234 227 209 208 202 193 186 194 196 200 221 231 228 218 204 191 204 216 215 211 210 219 245 246 210 182 171 168 166 163 161 162 162 162 164 164 165 167 167 168 170 171 173 174 174 174 174 171 168 166
259 258 258 259 261 262 261 259 258 257 256 257 257 257 256 256 254 252 249 248 249 250 251 253 256 257 259 259 262 264 266 268 252 228 227 236 241 243 237 220 205 195 195 197 197 197 205 214 223 228 231 225 216 205 190 180 193 232 256 259 226 187 169 162 159 157 155 156 157 158 158 160 162 165 167 169 171 172 174 175 176 175 174 173 171 169
260 257 255 254 255 257 260 261 261 260 259 258 257 256 255 255 254 254 252 251 250 251 253 255 257 258 258 258 258 261 264 264 254 235 224 231 236 240 243 233 215 204 204 203 200 198 204 208 212 218 231 232 226 206 171 160 176 213 231 240 224 191 168 161 158 157 157 157 157 157 156 157 159 161 162 167 170 172 174 175 176 176 174 173 172 171
273 268 262 258 257 257 261 265 266 264 262 259 255 253 252 253 255 258 260 259 259 259 259 258 259 259 259 260 260 260 263 263 259 248 232 231 230 232 237 237 227 217 216 212 205 200 204 209 209 211 223 229 226 212 176 167 180 198 207 217 217 196 172 164 162 161 161 158 156 155 154 154 154 155 157 162 165 168 172 174 175 175 174 173 173 173
291 290 287 282 277 271 268 266 265 265 263 261 259 258 259 260 263 265 267 266 264 261 259 258 258 257 256 257 258 259 260 260 256 249 237 235 233 233 233 234 231 227 224 221 214 209 210 215 215 213 215 223 223 214 189 180 183 188 187 192 210 212 189 170 166 165 164 160 158 156 155 153 152 152 154 158 161 163 167 169 171 172 172 171 172 174
287 289 290 287 282 276 270 267 266 266 266 266 265 265 264 265 266 267 266 264 261 258 256 256 256 256 255 255 256 256 257 256 253 248 242 237 237 238 236 234 233 232 229 226 222 218 216 221 223 222 218 219 218 210 191 186 184 181 173 176 191 203 195 177 171 168 165 163 162 161 159 156 155 156 158 160 163 166 168 168 168 169 169 168 169 171
274 275 276 276 275 273 272 272 273 275 276 275 273 269 265 264 264 264 263 261 259 257 255 254 254 254 254 254 254 254 253 253 251 248 244 235 235 239 244 242 240 236 232 227 222 218 216 220 223 224 221 220 216 207 194 189 184 180 180 185 187 186 181 178 173 168 165 166 165 164 161 159 159 161 163 165 167 168 168 166 165 166 168 170 171 171
266 267 268 270 272 275 278 283 285 285 283 280 276 273 269 267 265 264 263 261 259 256 254 253 253 253 252 250 249 248 246 243 240 238 237 229 227 231 239 243 245 244 239 232 226 219 214 215 218 220 219 216 213 207 200 189 184 184 189 190 181 169 165 182 179 170 166 168 167 165 163 162 162 164 165 165 165 165 165 165 165 167 168 171 174 175
262 262 265 269 274 280 286 288 288 287 285 282 279 276 273 269 264 261 260 260 259 260 260 259 257 256 255 252 249 244 240 236 235 233 230 220 215 217 226 234 239 242 242 238 231 224 216 214 216 217 216 210 208 204 198 186 182 185 194 188 178 168 173 187 183 174 171 170 168 166 166 165 163 162 162 161 160 159 161 163 166 168 169 170 172 176
261 260 261 262 265 269 275 277 279 280 280 280 279 277 275 272 270 267 265 262 259 258 257 260 262 261 260 258 256 253 251 244 236 229 226 223 218 217 223 230 235 237 237 237 232 225 217 215 215 215 210 207 205 203 194 184 182 185 191 187 185 184 185 176 171 171 175 171 169 167 167 163 159 156 155 155 156 158 161 163 166 168 170 170 171 174
266 266 266 265 265 266 268 269 271 272 272 272 272 274 275 276 274 272 270 269 268 268 267 267 267 266 262 261 261 263 264 258 247 231 222 222 221 222 225 230 234 236 236 235 232 225 218 215 212 209 202 203 203 201 192 184 182 183 187 189 192 194 192 172 168 172 176 171 168 167 165 159 155 153 153 155 158 161 164 165 167 167 168 169 172 174
291 291 288 286 284 282 280 279 278 278 277 275 274 273 273 273 272 271 271 272 274 275 275 274 270 267 265 265 264 264 264 261 253 239 220 216 217 220 225 229 233 236 238 238 236 231 224 218 210 202 196 200 202 200 192 183 180 180 183 187 190 190 182 172 173 177 177 172 169 165 162 157 156 156 159 160 161 163 166 167 168 168 167 168 170 173
292 292 291 290 288 287 286 286 285 284 282 280 279 277 277 276 275 273 272 271 270 268 267 264 261 259 258 258 258 258 257 258 254 247 227 212 208 211 219 226 232 237 243 245 244 239 234 226 216 205 198 197 197 196 191 184 180 179 180 182 184 185 181 178 178 179 177 173 168 163 160 159 160 162 162 160 160 162 166 168 168 168 166 167 168 170
285 287 288 290 291 291 291 290 288 286 283 280 279 278 277 275 273 271 270 267 264 261 258 254 252 252 254 254 254 253 252 253 254 252 241 220 205 201 206 217 228 237 245 254 259 257 250 238 225 214 205 199 195 191 188 184 181 179 178 179 182 184 183 179 177 177 178 173 167 162 161 163 165 165 161 159 160 164 167 168 168 167 166 166 166 167
287 288 290 291 290 289 288 287 285 282 279 277 276 274 271 270 268 267 267 264 261 257 252 250 249 250 251 252 251 250 247 247 249 251 248 233 210 193 192 205 219 231 241 253 268 280 281 266 258 247 228 211 200 191 185 182 179 176 175 178 181 183 181 176 174 175 177 171 166 165 167 169 168 164 160 161 163 166 167 168 168 167 165 166 166 166
290 290 290 289 288 287 286 284 282 279 276 274 272 271 271 270 268 265 263 260 257 253 250 248 248 248 249 250 250 251 250 249 249 250 251 241 219 194 186 196 208 220 230 232 236 247 261 279 334 347 334 288 228 197 185 176 171 170 171 177 180 179 175 171 170 172 173 167 165 166 170 170 167 163 161 162 163 164 165 166 167 167 165 165 165 164
293 292 290 289 287 285 284 283 280 276 274 272 271 272 273 272 270 266 261 258 255 253 251 250 249 248 247 248 250 253 256 258 258 258 257 249 228 201 189 193 201 210 218 218 214 210 210 210 215 253 320 344 337 292 192 170 164 164 170 175 176 173 170 166 166 167 169 166 165 166 168 168 167 166 165 164 163 163 164 166 167 166 164 163 162 161